CW3577 Weather Reports


time (UTC)temp
C
wind
direction
speed
KPH
gust
KPH
rain 1hr
cm
rain 24hr
cm
rain mn
cm
humidity
%
barometer
mb
20260507200110 16 286 3.2 29.0 0.00 0.58 0.10 33 1006.0
20260507194524 17 5 12.9 30.6 0.00 0.58 0.10 31 1006.0
20260507193048 17 257 6.4 27.4 0.00 0.58 0.10 33 1006.0
20260507191510 17 294 9.7 20.9 0.00 0.58 0.10 31 1006.3
20260507190036 17 211 6.4 19.3 0.00 0.64 0.10 35 1006.4
20260507184554 17 283 6.4 24.1 0.00 0.64 0.10 32 1006.6
20260507183031 17 281 9.7 20.9 0.00 0.64 0.10 35 1006.9
20260507181546 17 333 11.3 33.8 0.00 0.64 0.10 33 1006.9
20260507180015 17 225 11.3 30.6 0.00 0.64 0.10 30 1007.0
20260507174551 17 309 8.0 27.4 0.00 0.64 0.10 31 1007.0
20260507173100 17 315 17.7 25.7 0.00 0.64 0.10 32 1006.8
20260507173008 17 321 17.7 25.7 0.00 0.64 0.10 34 1006.8
20260507171523 16 284 8.0 29.0 0.00 0.64 0.10 38 1006.9
20260507170050 16 306 14.5 32.2 0.00 0.64 0.10 35 1007.1
20260507164512 16 242 3.2 24.1 0.00 0.64 0.10 37 1007.2
20260507163042 16 221 14.5 27.4 0.00 0.64 0.10 39 1007.5
20260507161609 16 284 6.4 22.5 0.00 0.64 0.10 47 1007.8
20260507160022 16 275 11.3 24.1 0.00 0.64 0.10 45 1007.8
20260507154542 16 184 12.9 27.4 0.00 0.64 0.10 41 1007.9
20260507153004 16 200 6.4 19.3 0.00 0.64 0.10 50 1007.8
20260507151529 14 332 8.0 22.5 0.00 0.64 0.10 53 1008.1
20260507150055 15 338 8.0 19.3 0.00 0.64 0.10 52 1008.2
20260507144522 15 318 6.4 14.5 0.00 0.64 0.10 52 1008.3
20260507143045 13 317 3.2 17.7 0.00 0.64 0.10 61 1008.3
20260507141507 15 273 6.4 19.3 0.00 0.64 0.10 56 1008.2
20260507140033 15 226 4.8 19.3 0.00 0.64 0.10 55 1008.2
20260507134611 15 252 3.2 19.3 0.00 0.64 0.10 55 1008.1
20260507133018 14 350 4.8 14.5 0.00 0.64 0.10 62 1008.2
20260507131539 14 298 8.0 16.1 0.00 0.64 0.10 58 1008.4
20260507130107 13 297 4.8 14.5 0.00 0.64 0.10 60 1008.6
20260507124523 13 9 4.8 12.9 0.00 0.64 0.10 65 1008.7
20260507123046 13 324 8.0 14.5 0.00 0.64 0.10 68 1008.7
20260507121504 12 325 4.8 9.7 0.00 0.64 0.10 71 1008.9
20260507120032 11 322 4.8 12.9 0.00 0.64 0.10 74 1008.8
20260507114550 10 284 1.6 14.5 0.00 0.64 0.10 81 1008.7
20260507113059 9 290 1.6 11.3 0.00 0.64 0.10 82 1008.7
20260507113001 9 271 4.8 11.3 0.00 0.64 0.10 82 1008.7
20260507111526 9 9 3.2 6.4 0.00 0.64 0.10 84 1008.5
20260507110047 8 355 0.0 3.2 0.00 0.64 0.10 84 1008.5
20260507104516 8 355 1.6 6.4 0.00 0.64 0.10 84 1008.4
20260507103036 8 348 0.0 4.8 0.00 0.64 0.10 84 1008.0
20260507101601 8 317 3.2 8.0 0.00 0.64 0.10 83 1007.8
20260507100023 8 327 3.2 11.3 0.00 0.64 0.10 83 1007.9
20260507094540 8 309 3.2 12.9 0.00 0.64 0.10 83 1007.9
20260507093007 8 311 0.0 14.5 0.00 0.64 0.10 84 1008.0
20260507091529 8 289 1.6 8.0 0.00 0.64 0.10 85 1008.1
20260507090053 8 305 1.6 16.1 0.00 0.64 0.10 85 1008.4
20260507084509 8 283 3.2 9.7 0.03 0.64 0.10 86 1008.0
20260507083040 9 286 1.6 11.3 0.05 0.64 0.10 86 1007.9
20260507081600 9 311 0.0 3.2 0.05 0.64 0.10 87 1007.8
20260507080018 10 313 1.6 11.3 0.05 0.64 0.10 84 1007.6
20260507074541 10 298 6.4 14.5 0.03 0.61 0.08 83 1007.9
20260507073010 10 290 12.9 19.3 0.00 0.58 0.05 82 1008.0
20260507071535 10 271 3.2 8.0 0.00 0.58 0.05 88 1007.3
20260507070050 10 269 0.0 6.4 0.00 0.58 0.05 88 1007.0
20260507064515 10 263 0.0 3.2 0.00 0.58 0.05 87 1006.9
20260507063033 11 263 0.0 3.2 0.00 0.58 0.05 87 1007.2
20260507061557 10 263 1.6 4.8 0.00 0.58 0.05 86 1007.0
20260507060023 11 290 3.2 8.0 0.00 0.58 0.05 85 1007.2
20260507054546 11 320 3.2 12.9 0.00 0.58 0.05 85 1007.3
20260507053005 11 325 6.4 19.3 0.00 0.58 0.05 86 1007.7
20260507051536 11 321 1.6 14.5 0.03 0.58 0.05 86 1007.4
20260507050057 11 306 4.8 14.5 0.05 0.58 0.05 87 1007.7
20260507044516 12 307 3.2 14.5 0.10 0.58 0.05 88 1007.2
20260507043030 12 327 8.0 20.9 0.10 0.58 0.05 89 1007.3
20260507041556 13 284 1.6 11.3 0.08 0.56 0.03 89 1007.1
20260507040019 13 302 4.8 12.9 0.05 0.53 0.53 88 1007.4
20260507034537 13 315 4.8 14.5 0.00 0.48 0.48 86 1007.2
20260507033055 13 323 3.2 25.7 0.00 0.48 0.48 86 1006.7
20260507031525 15 332 6.4 16.1 0.00 0.48 0.48 92 1006.3
20260507030039 15 334 4.8 14.5 0.00 0.48 0.48 93 1006.0
20260507024507 15 236 0.0 11.3 0.00 0.48 0.48 93 1006.2
20260507023027 15 237 3.2 9.7 0.00 0.48 0.48 93 1006.2
20260507021552 15 192 0.0 6.4 0.00 0.48 0.48 93 1006.0
20260507020027 15 192 0.0 6.4 0.00 0.48 0.48 92 1005.8
20260507014554 15 195 1.6 6.4 0.00 0.48 0.48 92 1005.9
20260507013021 15 171 0.0 9.7 0.00 0.48 0.48 92 1006.0
20260507011531 15 175 0.0 9.7 0.00 0.48 0.48 92 1006.0
20260507010053 15 205 1.6 9.7 0.00 0.48 0.48 92 1006.1
20260507004529 15 184 3.2 9.7 0.00 0.48 0.48 92 1005.9
20260507003037 15 165 3.2 16.1 0.00 0.48 0.48 92 1005.8
20260507001602 15 180 6.4 11.3 0.00 0.48 0.48 92 1005.7
20260507000028 15 171 8.0 16.1 0.05 0.48 0.48 92 1005.8
20260506234555 15 177 8.0 19.3 0.10 0.48 0.48 92 1005.6
20260506233019 15 196 4.8 16.1 0.15 0.48 0.48 92 1005.6
20260506231549 15 182 3.2 14.5 0.20 0.48 0.48 92 1005.6
20260506230004 15 161 3.2 9.7 0.23 0.43 0.43 92 1005.7
20260506224528 15 204 1.6 12.9 0.20 0.38 0.38 92 1005.8
20260506223054 15 232 3.2 12.9 0.15 0.33 0.33 91 1005.7
20260506221516 15 175 6.4 16.1 0.10 0.28 0.28 90 1005.9
20260506220031 15 180 8.0 20.9 0.05 0.20 0.20 90 1005.9
20260506214558 15 182 1.6 22.5 0.03 0.18 0.18 89 1006.1
20260506213018 15 173 8.0 22.5 0.05 0.18 0.18 89 1006.0
20260506211601 15 168 8.0 19.3 0.08 0.18 0.18 89 1006.3
20260506210103 15 168 12.9 17.7 0.08 0.15 0.15 89 1006.5
20260506204529 16 178 6.4 17.7 0.08 0.15 0.15 89 1006.6
20260506203052 16 169 4.8 16.1 0.05 0.13 0.13 88 1006.7
20260506201530 16 205 3.2 16.1 0.05 0.10 0.10 87 1006.6